Location: Rounton
(54.4000°N, 1.3500°W)
Time: 13:03:13
(UTC+00:00)

Transit 2A - Pass Details

Date: 04 December 2021
Orbit: 591 x 967 km, 66.7° (Epoch: 17 January)

Event Time Altitude Azimuth Distance (km) Brightness Sun altitude
Rises 10:44:40 0° 308° (NW) 3,666 9.0 11.8°
Reaches altitude 10° 10:50:18 10° 269° (W) 2,692 8.7 12.0°
Maximum altitude 10:50:59 10° 263° (W) 2,672 8.8 12.1°
Drops below altitude 10° 10:51:40 10° 256° (WSW) 2,679 8.8 12.1°
Sets 10:57:10 0° 216° (SW) 3,546 10.1 12.3°
